www.pogodaiklimat.ru

ПОГОДА на Базе ВВС Касл, CA

  • Прогноз погоды на Базе ВВС Касл
  • Монитор погоды на Базе ВВС Касл
  • Климат на Базе ВВС Касл

АРХИВ ПОГОДЫ на Базе ВВС Касл

Время (UTC), дата Ветер
(напр.,м/с)
 
Видим.   Явления Облачность Т
(С)
Тd
(С)
f
(%)
Тe
(С)
Тes
(С)
Комфортность

P
(гПа)

Po
(гПа)
Тmin
(С)
Tmax
(С)
R
(мм)
SD
(см)
11:15 26.05 З  16 км    8/8 1230 м  +13.0  +10.0  82  +11  +11      1000.9         
11:35 26.05 З  14 км    10/10 1170 м  +13.0  +10.0  82  +10  +10      1001.6         
11:55 26.05 ЮЗ  8 км    10/10 1140 м  +12.0  +12.0  100  +9  +9      1001.9         
12:15 26.05 ЮЗ  8 км    10/10 1110 м  +11.0  +11.0  100  +9  +9      1001.9         
12:45 26.05 З  5 км  слабый дождь  10/10 960 м  +11.0  +11.0  100  +9  +9      1002.2         
13:45 26.05 СЗ  16 км    8/8 1500 м  +12.0  +12.0  100  +10  +10      1002.6         
14:45 26.05 СЗ  16 км    8/8 1500 м  +14.0  +13.0  94  +13  +13      1003.2         
15:45 26.05 СЗ  16 км    2/2 1260 м  +16.0  +11.0  72  +16  +21      1003.2         
17:45 26.05 З  16 км    2/2 1260 м  +18.0  +7.0  49  +18  +25      1003.6         
18:45 26.05 С  5
{8} 
16 км    8/8 1110 м  +18.0  +8.0  52  +17  +19      1003.9         
19:45 26.05 В  16 км    8/8 1800 м  +15.0  +12.0  82  +14  +18      1004.6         
20:45 26.05 В  16 км  слабый дождь  8/8 1800 м  +12.0  +12.0  100  +10  +14      1004.9         
21:45 26.05 В  16 км    8/8 1500 м  +15.0  +13.0  88  +14  +17      1004.9         
22:25 26.05 ЮВ  5 км  дождь  8/8 780 м  +13.0  +13.0  100  +11  +13      1005.6         
22:45 26.05 ЮВ  3 км  дождь  8/8 780 м  +12.0  +12.0  100  +9  +11      1005.6         
23:00 26.05 ЮВ  6 км  дождь  8/8 780 м  +12.0  +12.0  100  +9  +10      1005.6         
23:50 26.05   16 км    5/5 1800 м  +16.0  +13.0  82  +16  +21      1005.9         
00:45 27.05   16 км    5/5 1800 м  +14.0  +11.0  82  +14  +16      1006.3         
01:45 27.05 СЗ  16 км    5/5 1800 м  +14.0  +12.0  88  +13  +13      1006.9         
01:55 27.05 СЗ  14 км    8/5 1950 м
[средняя] 
+13.0  +12.0  94  +12  +12      1006.9         
02:15 27.05 СЗ  16 км    8/8 1950 м  +12.0  +12.0  100  +10  +10      1006.9         
02:35 27.05 З  16 км    2/2 1950 м  +12.0  +11.0  94  +10  +10      1006.9         
02:45 27.05 З  16 км    5/5 1800 м  +12.0  +11.0  94  +10  +10      1006.9         
02:55 27.05 З  16 км    ясно  +11.0  +11.0  100  +9  +9      1007.3         
03:15 27.05 З  16 км    ясно  +11.0  +11.0  100  +10  +10      1007.6         
03:35 27.05 З  16 км    ясно  +11.0  +11.0  100  +9  +9      1007.9         
03:55 27.05 З  16 км    ясно  +11.0  +11.0  100  +9  +9      1007.9         
04:15 27.05 СЗ  16 км    ясно  +10.0  +10.0  100  +8  +8      1008.3         
04:35 27.05   16 км    5/5 1500 м  +10.0  +10.0  100  +9  +9      1008.6         
04:55 27.05   16 км    2/2 1500 м  +10.0  +10.0  100  +9  +9      1008.3         
05:15 27.05 В  16 км    ясно  +9.0  +9.0  100  +7  +7      1008.6         
05:35 27.05   14 км    ясно  +9.0  +9.0  100  +8  +8      1009.0         
05:55 27.05   11 км    ясно  +9.0  +9.0  100  +8  +8      1009.0         
06:15 27.05   16 км    ясно  +9.0  +9.0  100  +8  +8      1008.6         
06:35 27.05   13 км    ясно  +8.0  +8.0  100  +7  +7      1009.0         
06:55 27.05   13 км    ясно  +8.0  +8.0  100  +7  +7      1009.0         
07:15 27.05   3 км    ясно  +8.0  +8.0  100  +7  +7      1009.0         
07:35 27.05   1 км    ?/?  +8.0  +8.0  100  +7  +7      1009.0         
08:15 27.05   13 км    ясно  +8.0  +8.0  100  +7  +7      1009.0         
08:35 27.05   13 км    ясно  +8.0  +8.0  100  +7  +7      1009.0         
08:55 27.05   4 км    ясно  +8.0  +8.0  100  +7  +7      1009.0         
09:15 27.05   8 км    ясно  +7.0  +7.0  100  +6  +6      1009.0         
09:35 27.05   13 км    ясно  +7.0  +7.0  100  +6  +6      1009.0         
09:55 27.05   10 км    ясно  +7.0  +7.0  100  +6  +6      1009.0         
10:15 27.05   8 км    ясно  +7.0  +7.0  100  +6  +6      1009.0         
10:35 27.05   11 км    ясно  +7.0  +7.0  100  +6  +6      1009.3         
10:55 27.05   10 км    2/0 3000 м
[средняя] 
+7.0  +7.0  100  +6  +6      1009.6         
11:15 27.05   14 км    8/0 3000 м
[средняя] 
+7.0  +7.0  100  +6  +6      1009.6         

 

Местоположение метеостанции Castle Air Force Base: широта 37.3667 долгота -120.5667 высота над уровнем моря 57 м.

В архиве по умолчанию представлена погода на Базе ВВС Касл за последние 1-2 суток. Обновление информации о фактической погоде в базе происходит ежечасно! Архивные данные за месяц целиком и за предыдущие месяцы Вы можете получить, выбрав интересующий диапазон дат из раскрывающегося списка и нажав кнопку "Ввод!".

Внимание! Архив погоды МЕТАР в базе сайта хранится не более 60 дней. Нет смысла пытаться выбрать более раннюю дату.

Внимание! Время в таблицах - всемирное. Для получения местного времени необходимо прибавить поправку, которая на Базе ВВС Касл равна -8 ч.

Ветер - указаны скорость ветра в м/с и направление, откуда дует ветер: С - северный, СВ - северо-восточный, В - восточный, ЮВ - юго-восточный, Ю - южный, ЮЗ - юго-западный, З - западный, СЗ - северо-западный.
Видимость - горизонтальная дальность видимости в метрах или километрах. При видимости от 1 до 10 км при отсутствии осадков обычно наблюдается дымка, при ухудшении видимости до 1 км и менее - туман. В сухую погоду видимость может ухудшаться дымом, пылью или мглою.
Атмосферные явления - указаны явления, наблюдавшиеся в указанный момент времени.
Облачность - указаны через наклонную черту верхняя и нижняя облачность в баллах и высота нижней границы облаков в метрах. Внимание: облачность, как и прочие метеорологические величины в США измеряются автоматическими метеостанциями. Указанные значения в баллах носят условный характер и показывают процент времени, в течение которого, в среднем, лазерный луч высотомера отражался от облаков обратно.
T - Температура воздуха - температура, измеренная на высоте 2 м над землей.
Td - Температура точки росы - температура, при понижении до которой содержащийся в воздухе водяной пар достигнет насыщения.
f - Относительная влажность воздуха - влажноcть воздуха, измеренная на высоте 2 м над землей.
Te - Эффективная температура - температура, которую ощущает одетый по сезону человек в тени. Характеристика душности погоды. При расчете учитывается влияние влажности воздуха и скорости ветра на теплоощущения человека.
Tes - Эффективная температура на солнце - температура, которую ощущает человек, с поправкой на солнечный нагрев. Характеристика знойности погоды. Зависит от высоты солнца над горизонтом, облачности и скорости ветра. Ночью, в пасмурную погоду, а также при ветре 12 м/с и более поправка равна нулю.
P - Атмосферное давление - приведенное к уровню моря атмосферное давление.
Po - Атмосферное давление - измеренное на уровне метеостанции атмосферное давление.
Tmin - Минимальная температура - минимум температуры воздуха на высоте 2 м над землей.
Tmax - Максимальная температура - максимум температуры воздуха на высоте 2 м над землей.
R - Количество осадков - Количество выпавших осадков за 3 или 6 часов, мм.
SD - Снежный покров - Высота снежного покрова, см.